Tracking 19709 objects as of 17-Jun-2019
HD Live streaming from Space Station
objects crossing your sky now

DELTA 1 DEB

Track DELTA 1 DEB now!
10-day predictions


NORAD ID: 18645
Int'l Code: 1973-086GX
Perigee: 1,429.4 km
Apogee: 1,624.9 km
Inclination: 102.2 °
Period: 116.4 minutes
Semi major axis: 7898 km
RCS: 0.0222 m2 (small)
Launch date: November 6, 1973
Source: United States (US)
Launch site: AIR FORCE WESTERN TEST RANGE (AFWTR)

Note: This is SATELLITE DEBRIS
aabbcc
Your satellite tracking list
Your tracking list is empty




NASA's NSSDC Master Catalog

Two Line Element Set (TLE):
1 18645U 73086GX  19166.23128529 -.00000207 +00000-0 -12362-2 0  9990
2 18645 102.1706 266.1454 0123732 085.2443 305.1812 12.36843473547541
Source of the keplerian elements: AFSPC